Regional Weather Roundup
Issued by NWS

Home | Current Version | Previous Version | Text Only | Print | Product List | Glossary On
Versions: 1 2 3 4 5 6 7 8 9 10 11 12 13 14 15 16 17 18 19 20 21 22 23 24 25 26 27 28 29 30 31 32 33 34 35 36 37 38 39 40 41 42 43 44 45 46 47 48 49 50
291
ASUS43 KLMK 242210
RWRKY
KENTUCKY REGIONAL WEATHER ROUNDUP
NATIONAL WEATHER SERVICE LOUISVILLE KY
600 PM EDT SAT JUN 24 2017

NOTE "FAIR" INDICATES FEW OR NO CLOUDS BELOW 12,000 FEET
WITH NO SIGNIFICANT WEATHER AND/OR OBSTRUCTIONS TO VISIBILITY.

KYZ001>023-026-027-061>063-070>075-242300-
WESTERN AND SOUTH CENTRAL KENTUCKY

CITY           SKY/WX    TMP DP  RH WIND       PRES   REMARKS
PADUCAH        MOSUNNY   78  51  38 NW12G21   30.09S
HENDERSON      MOSUNNY   78  53  41 W14       30.08S
OWENSBORO      PTSUNNY   78  55  44 NW15      30.06S
HOPKINSVILLE   MOSUNNY   79  58  49 W15       30.06S
BOWLING GREEN  MOSUNNY   79  57  46 N9        30.06S
GLASGOW        MOSUNNY   78  58  50 W9        30.05F
$$

KYZ024-025-028>034-038-045-046-053-242300-
NORTH CENTRAL KENTUCKY

CITY           SKY/WX    TMP DP  RH WIND       PRES   REMARKS
LOUISVILLE/SDF PTSUNNY   80  55  42 W17       30.03S
LOUISVILLE/LOU MOSUNNY   80  56  43 NW13G20   30.03F
FORT KNOX      MOSUNNY   78  57  49 W12G18    30.03F
$$

KYZ035>037-039>044-047>052-055>060-089>105-242300-
NORTHEAST KENTUCKY

CITY           SKY/WX    TMP DP  RH WIND       PRES   REMARKS
LEXINGTON      MOSUNNY   79  56  45 W10       30.03S
COVINGTON      PTSUNNY   76  57  51 W13       30.01S
FRANKFORT      SUNNY     78  56  46 NW10G16   30.02S
$$

KYZ054-064>069-076>088-106>120-242300-
SOUTHEAST KENTUCKY

CITY           SKY/WX    TMP DP  RH WIND       PRES   REMARKS
JACKSON        SUNNY     79  61  53 VRB6      30.02S
LONDON         CLOUDY    80  55  42 NW13      30.02F
SOMERSET       SUNNY     77  55  47 NW8G17    30.05R
MIDDLESBORO    SUNNY     81  60  49 NW7       30.02S
MONTICELLO     PTCLDY    79  63  57 NW18      30.05S
$$





USA.gov is the U.S. government's official web portal to all federal, state and local government web resources and services.